Location: Killarney
(45.9719°N, 81.5115°W)
Time: 23:14:49
(UTC-04:00)

ISS - Visible Passes

Search period start: 17 April 2025 00:00
Search period end: 27 April 2025 00:00
Orbit: 414 x 421 km, 51.6° (Epoch: 17 April)

Date Brightness Start Highest point End Pass type
(mag) Time Alt. Az. Time Alt. Az. Time Alt. Az.
19 Apr -1.3 05:29:25 10° S 05:31:35 16° SE 05:33:45 10° E visible
21 Apr -2.8 05:29:01 12° SSW 05:31:47 39° SE 05:34:55 10° ENE visible
22 Apr -2.1 04:42:45 21° SSE 04:43:43 24° SE 04:46:30 10° E visible
23 Apr -1.3 03:56:23 15° ESE 03:56:23 15° ESE 03:57:45 10° E visible
23 Apr -3.8 05:29:17 14° WSW 05:32:01 89° NNW 05:35:23 10° ENE visible
24 Apr -3.6 04:42:50 39° SSW 04:43:48 59° SSE 04:47:06 10° ENE visible
25 Apr -2.5 03:56:18 32° ESE 03:56:18 32° ESE 03:58:43 10° ENE visible
25 Apr -3.0 05:29:12 11° W 05:32:18 47° NNW 05:35:34 10° ENE visible
26 Apr -0.9 03:09:42 12° E 03:09:42 12° E 03:10:08 10° E visible
26 Apr -3.6 04:42:35 32° W 04:43:56 64° NNW 04:47:15 10° ENE visible
